QPF
0.00 0.00 0.00 0.00 0.00 0.00 0.01 0.02 0.00 0.00 0.00 0.00 0.00 0.00 0.00 0.00 0.00 0.00 0.00 0.00 0.00 0.00 0.00 0.00 0.00 0.00 0.00 0.00 0.00 0.00 0.00 0.00
0.00 0.00 0.00 0.00 0.00 0.00 0.01 0.00 0.00 0.00 0.00 0.00 0.00 0.00 0.00 0.00 0.00 0.00 0.00 0.00 0.00 0.00 0.00 0.00 0.00 0.00 0.00 0.00 0.00 0.00 0.00 0.00
0.00 0.00 0.00 0.00 0.00 0.00 0.00 0.01 0.02 0.01 0.00 0.00 0.00 0.00 0.00 0.00 0.00 0.00 0.00 0.00 0.00 0.00 0.00 0.00 0.00 0.00 0.00 0.00 0.00 0.00 0.00 0.00
0.00 0.00 0.00 0.00 0.01 0.01 0.03 0.04 0.04 0.02 0.00 0.00 0.00 0.00 0.00 0.00 0.00 0.00 0.00 0.00 0.00 0.00 0.00 0.00 0.00 0.00 0.00 0.00 0.00 0.00 0.00 0.00
0.00 0.00 0.00 0.02 0.03 0.03 0.04 0.04 0.03 0.01 0.00 0.00 0.00 0.00 0.00 0.00 0.00 0.00 0.00 0.00 0.00 0.00 0.00 0.00 0.00 0.00 0.00 0.00 0.00 0.00 0.00 0.00
0.00 0.00 0.00 0.02 0.03 0.02 0.03 0.02 0.02 0.01 0.00 0.00 0.00 0.00 0.00 0.00 0.00 0.00 0.00 0.00 0.00 0.00 0.00 0.00 0.00 0.00 0.00 0.00 0.00 0.00 0.00 0.00
0.00 0.00 0.00 0.04 0.03 0.01 0.01 0.01 0.01 0.00 0.00 0.00 0.00 0.00 0.00 0.00 0.00 0.00 0.00 0.00 0.00 0.00 0.00 0.00 0.00 0.00 0.00 0.00 0.00 0.00 0.00 0.00
0.00 0.00 0.00 0.00 0.01 0.01 0.00 0.00 0.00 0.00 0.00 0.00 0.00 0.00 0.00 0.00 0.00 0.00 0.00 0.00 0.00 0.00 0.00 0.00 0.00 0.00 0.00 0.00 0.00 0.00 0.00 0.00
0.00 0.00 0.00 0.00 0.00 0.00 0.00 0.00 0.00 0.00 0.00 0.00 0.00 0.00 0.00 0.00 0.00 0.00 0.00 0.00 0.00 0.00 0.00 0.00 0.00 0.00 0.00 0.00 0.00 0.00 0.00 0.00
0.00 0.00 0.00 0.00 0.00 0.00 0.00 0.00 0.00 0.00 0.00 0.00 0.00 0.00 0.00 0.00 0.00 0.00 0.00 0.00 0.00 0.00 0.00 0.00 0.00 0.00 0.00 0.00 0.00 0.00 0.00 0.00
0.00 0.00 0.00 0.00 0.00 0.00 0.00 0.00 0.00 0.00 0.00 0.00 0.00 0.00 0.00 0.00 0.00 0.00 0.00 0.00 0.00 0.00 0.00 0.00 0.00 0.00 0.00 0.00 0.00 0.00 0.00 0.00
0.00 0.00 0.00 0.00 0.00 0.00 0.00 0.00 0.00 0.00 0.00 0.00 0.00 0.00 0.00 0.00 0.00 0.00 0.00 0.00 0.00 0.00 0.00 0.00 0.00 0.00 0.00 0.00 0.00 0.00 0.00 0.00
0.00 0.00 0.00 0.00 0.00 0.00 0.00 0.00 0.00 0.00 0.00 0.00 0.00 0.00 0.00 0.00 0.00 0.00 0.00 0.00 0.00 0.00 0.00 0.00 0.00 0.00 0.00 0.00 0.00 0.00 0.00 0.00
0.00 0.00 0.00 0.00 0.00 0.00 0.00 0.00 0.00 0.00 0.00 0.00 0.00 0.00 0.00 0.00 0.00 0.00 0.00 0.00 0.00 0.00 0.00 0.00 0.00 0.00 0.00 0.00 0.00 0.00 0.00 0.01
0.00 0.00 0.00 0.00 0.00 0.00 0.00 0.00 0.00 0.00 0.00 0.00 0.00 0.00 0.00 0.00 0.00 0.00 0.00 0.00 0.00 0.00 0.00 0.00 0.00 0.00 0.00 0.00 0.00 0.00 0.01 0.02
0.00 0.00 0.00 0.00 0.00 0.00 0.00 0.00 0.00 0.00 0.00 0.00 0.00 0.00 0.00 0.00 0.00 0.00 0.00 0.00 0.00 0.00 0.00 0.00 0.00 0.00 0.00 0.00 0.01 0.01 0.03 0.05
0.00 0.00 0.00 0.00 0.00 0.00 0.00 0.00 0.00 0.00 0.00 0.00 0.00 0.00 0.00 0.00 0.00 0.01 0.02 0.03 0.04 0.04 0.04 0.01 0.00 0.00 0.01 0.02 0.03 0.02 0.03 0.01
0.00 0.00 0.00 0.00 0.00 0.00 0.00 0.00 0.00 0.00 0.00 0.00 0.00 0.00 0.00 0.01 0.01 0.03 0.07 0.08 0.07 0.07 0.08 0.08 0.07 0.07 0.06 0.05 0.03 0.03 0.03 0.02
0.00 0.00 0.00 0.00 0.00 0.00 0.00 0.00 0.00 0.00 0.00 0.00 0.00 0.00 0.01 0.03 0.05 0.07 0.10 0.10 0.10 0.10 0.11 0.13 0.13 0.12 0.09 0.06 0.05 0.03 0.02 0.01
MSLP
1006.11 1006.73 1007.93 1008.94 1009.83 1010.77 1011.76 1012.54 1012.99 1013.54 1014.38 1015.35 1016.48 1017.27 1017.68 1017.93 1018.19 1018.40 1018.52 1018.71 1018.71 1018.56 1018.57 1018.78 1018.89 1019.10 1019.42 1019.46 1019.69 1019.66 1019.90 1019.99
1005.71 1006.65 1007.78 1008.89 1009.93 1010.63 1011.08 1012.04 1012.92 1013.37 1014.18 1014.68 1015.99 1017.00 1017.57 1017.97 1018.19 1018.38 1018.55 1018.69 1018.81 1018.74 1018.86 1018.88 1019.15 1019.25 1019.52 1019.54 1019.89 1020.18 1020.37 1020.23
1006.49 1007.11 1008.08 1008.48 1009.14 1010.24 1011.28 1011.85 1013.08 1014.02 1014.69 1015.00 1015.38 1016.25 1017.24 1017.60 1018.05 1018.36 1018.67 1018.82 1018.90 1019.01 1019.06 1019.45 1019.43 1019.64 1019.80 1019.82 1019.64 1020.23 1020.39 1020.43
1006.97 1007.92 1008.28 1008.75 1009.43 1010.64 1012.01 1012.71 1013.66 1014.29 1014.80 1015.36 1016.42 1016.96 1017.59 1018.22 1018.46 1018.46 1018.57 1018.74 1018.96 1018.98 1019.20 1019.26 1019.49 1019.69 1019.91 1019.98 1019.83 1019.95 1020.56 1020.62
1007.59 1008.15 1009.24 1010.33 1011.36 1012.16 1012.62 1013.37 1014.30 1014.82 1015.01 1015.39 1016.00 1016.56 1017.55 1018.06 1018.24 1018.53 1018.75 1018.79 1018.98 1019.02 1019.18 1019.35 1019.49 1019.73 1020.00 1020.07 1020.01 1019.93 1020.06 1020.57
1009.35 1010.12 1010.40 1011.31 1011.66 1012.44 1013.17 1013.92 1014.46 1014.68 1014.74 1014.98 1015.82 1016.61 1017.25 1017.69 1018.17 1018.41 1018.95 1019.16 1019.28 1019.55 1019.44 1019.53 1019.69 1019.74 1020.19 1020.11 1020.01 1019.98 1020.18 1020.77
1010.35 1011.14 1011.63 1012.61 1012.92 1013.46 1013.99 1014.37 1014.39 1014.61 1014.96 1015.28 1015.78 1016.40 1017.08 1017.86 1018.61 1019.08 1019.10 1019.25 1019.35 1019.46 1019.97 1020.17 1020.45 1020.24 1020.04 1020.34 1020.46 1020.39 1020.42 1020.70
1010.82 1010.58 1011.42 1012.71 1013.47 1013.82 1014.15 1014.55 1014.56 1014.68 1015.01 1015.31 1015.70 1016.17 1016.80 1017.22 1017.99 1018.58 1019.11 1019.48 1019.74 1019.84 1020.01 1020.50 1020.69 1020.92 1020.89 1020.71 1020.53 1020.55 1020.70 1020.99
1011.97 1012.32 1012.23 1012.43 1013.24 1013.75 1014.12 1014.40 1014.48 1014.92 1015.16 1015.32 1015.63 1016.20 1016.68 1017.26 1017.46 1017.95 1018.41 1018.63 1019.32 1019.81 1020.20 1020.23 1020.56 1021.01 1021.19 1021.29 1021.37 1021.25 1021.24 1021.42
1012.65 1013.16 1013.30 1013.27 1013.42 1013.98 1014.22 1014.33 1014.56 1014.83 1015.08 1015.59 1015.81 1016.10 1016.61 1017.06 1017.20 1017.62 1018.24 1018.65 1018.98 1019.51 1019.99 1020.56 1020.73 1021.01 1021.15 1021.49 1021.87 1021.94 1022.02 1022.09
1012.95 1012.95 1012.88 1012.96 1013.17 1013.63 1014.10 1014.23 1014.48 1014.91 1015.06 1015.29 1015.53 1015.84 1016.30 1016.53 1016.92 1017.40 1017.64 1018.20 1018.68 1019.44 1019.96 1020.26 1020.81 1021.27 1021.91 1021.74 1021.83 1022.20 1022.40 1022.64
1012.79 1012.73 1012.97 1012.98 1013.12 1013.34 1013.75 1014.13 1014.45 1014.65 1015.00 1015.23 1015.58 1015.78 1015.99 1016.29 1016.72 1016.95 1017.44 1017.58 1018.23 1018.93 1019.62 1020.12 1020.69 1020.90 1021.53 1022.16 1022.31 1022.40 1022.78 1023.07
1012.78 1013.22 1013.17 1013.16 1013.42 1013.52 1013.96 1014.22 1014.52 1014.86 1015.03 1015.20 1015.39 1015.58 1015.79 1016.37 1016.95 1017.14 1017.37 1017.48 1018.14 1018.55 1019.29 1019.87 1020.42 1021.06 1021.47 1021.94 1022.30 1022.66 1023.25 1023.51
1013.33 1013.53 1013.59 1013.40 1013.63 1013.87 1014.27 1014.60 1014.84 1014.98 1015.04 1015.13 1015.41 1015.59 1015.79 1015.98 1016.39 1017.00 1017.47 1017.83 1018.10 1018.55 1019.28 1019.71 1020.30 1020.86 1021.74 1022.22 1022.66 1022.99 1023.24 1024.32
1013.18 1013.79 1013.46 1013.50 1013.84 1014.04 1014.35 1014.54 1014.57 1014.77 1015.04 1015.21 1015.26 1015.36 1015.60 1016.01 1016.45 1016.56 1017.07 1017.69 1018.34 1018.98 1019.50 1019.99 1020.41 1021.08 1021.98 1022.47 1023.65 1023.94 1023.91 1024.42
1012.79 1013.45 1013.80 1013.88 1014.05 1014.24 1014.27 1014.35 1014.41 1014.60 1014.97 1015.28 1015.42 1015.86 1016.22 1016.37 1016.53 1017.17 1017.59 1018.17 1018.90 1019.69 1020.13 1020.49 1021.11 1021.63 1022.33 1023.01 1023.91 1024.52 1024.60 1025.20
1012.92 1013.27 1013.63 1013.94 1014.17 1014.26 1014.03 1014.09 1014.44 1014.67 1014.99 1015.24 1015.60 1015.95 1016.36 1016.59 1017.11 1017.47 1018.06 1018.49 1019.00 1019.77 1020.66 1021.00 1021.27 1021.64 1021.90 1022.99 1024.03 1025.06 1025.38 1025.72
1013.81 1014.12 1014.38 1014.44 1014.39 1014.67 1014.53 1014.33 1014.67 1014.89 1015.15 1015.51 1015.89 1016.22 1016.62 1016.92 1017.31 1017.86 1018.36 1018.74 1019.40 1020.24 1020.95 1021.41 1021.81 1022.21 1022.53 1023.04 1023.91 1025.16 1025.63 1026.38
1014.86 1015.07 1015.03 1014.95 1015.11 1014.54 1015.01 1014.94 1015.24 1015.26 1015.70 1016.04 1016.27 1016.48 1016.96 1017.40 1017.94 1018.68 1019.20 1019.38 1019.99 1020.64 1021.44 1022.03 1022.37 1022.71 1022.86 1023.48 1024.32 1025.25 1025.87 1026.56
Thickness
5745 5740 5731 5723 5717 5709 5702 5695 5691 5686 5679 5671 5662 5654 5651 5648 5646 5644 5642 5640 5640 5642 5642 5641 5638 5635 5630 5629 5626 5626 5624 5623
5739 5730 5721 5715 5709 5706 5700 5691 5683 5678 5671 5666 5656 5647 5642 5640 5637 5636 5633 5632 5633 5634 5632 5632 5629 5627 5623 5622 5618 5614 5612 5613
5723 5718 5712 5709 5705 5703 5691 5683 5671 5663 5657 5654 5651 5644 5637 5634 5630 5627 5622 5623 5625 5623 5623 5620 5619 5617 5615 5613 5615 5608 5606 5604
5711 5706 5704 5701 5696 5685 5678 5670 5659 5651 5647 5643 5633 5629 5624 5620 5618 5618 5617 5615 5615 5614 5612 5612 5610 5607 5605 5604 5604 5603 5597 5596
5699 5697 5687 5680 5672 5666 5661 5655 5644 5639 5637 5634 5630 5628 5619 5614 5612 5609 5607 5605 5604 5605 5602 5600 5599 5597 5594 5593 5592 5592 5591 5586
5676 5672 5671 5665 5662 5655 5648 5640 5635 5631 5631 5630 5623 5616 5611 5607 5603 5601 5595 5592 5588 5587 5588 5588 5586 5585 5581 5582 5582 5581 5579 5573
5661 5656 5653 5645 5641 5636 5630 5626 5624 5622 5619 5617 5613 5609 5603 5595 5588 5583 5581 5578 5577 5575 5570 5568 5565 5569 5572 5569 5566 5565 5565 5563
5651 5655 5646 5632 5624 5621 5618 5614 5611 5609 5606 5603 5599 5597 5593 5590 5583 5577 5570 5566 5562 5560 5559 5554 5552 5548 5548 5551 5553 5553 5551 5548
5628 5626 5628 5628 5621 5614 5607 5604 5604 5598 5593 5591 5587 5583 5581 5577 5574 5567 5563 5560 5552 5548 5543 5543 5538 5533 5532 5531 5531 5531 5532 5530
5612 5608 5606 5609 5607 5599 5596 5594 5591 5585 5581 5576 5574 5572 5568 5564 5562 5558 5551 5546 5542 5536 5530 5523 5522 5519 5517 5514 5511 5511 5511 5511
5597 5601 5606 5604 5598 5591 5583 5579 5575 5569 5566 5564 5561 5557 5554 5553 5549 5544 5543 5537 5530 5522 5517 5513 5507 5503 5496 5499 5498 5495 5494 5493
5586 5591 5591 5589 5584 5579 5570 5565 5562 5559 5554 5549 5544 5542 5542 5539 5535 5533 5528 5527 5521 5512 5504 5498 5494 5492 5486 5482 5481 5480 5478 5475
5572 5572 5572 5572 5570 5567 5557 5552 5548 5542 5539 5535 5531 5528 5524 5519 5513 5511 5509 5509 5503 5498 5489 5484 5479 5473 5472 5470 5469 5465 5461 5458
5553 5556 5556 5557 5554 5551 5542 5532 5528 5524 5523 5521 5516 5512 5507 5503 5497 5491 5488 5485 5482 5478 5471 5466 5461 5457 5452 5451 5451 5449 5447 5439
5538 5536 5543 5542 5538 5534 5527 5521 5515 5512 5507 5502 5499 5497 5492 5485 5479 5475 5468 5462 5456 5452 5448 5444 5441 5437 5434 5435 5426 5425 5428 5425
5535 5530 5527 5524 5522 5519 5514 5510 5505 5500 5492 5487 5482 5477 5470 5463 5457 5447 5440 5432 5426 5420 5418 5416 5414 5414 5414 5412 5409 5406 5406 5403
5522 5519 5515 5513 5508 5505 5505 5502 5494 5488 5482 5477 5469 5461 5454 5446 5436 5428 5419 5412 5407 5399 5392 5392 5393 5396 5400 5396 5392 5387 5385 5385
5499 5496 5494 5493 5493 5488 5488 5486 5480 5476 5470 5464 5456 5449 5440 5431 5420 5411 5401 5394 5388 5379 5376 5374 5374 5375 5376 5378 5377 5367 5369 5365
5476 5472 5473 5472 5470 5475 5469 5468 5463 5460 5454 5450 5444 5439 5430 5418 5404 5392 5381 5375 5370 5364 5359 5357 5356 5357 5361 5359 5357 5355 5353 5349